Flag for Colombia Weather past 2 weeks in Buenaventura, Colombia

Now
84 °F

Broken clouds.


Feels Like: 87 °F
Forecast: 77 / 87 °F
Wind: No wind

Location: Cali / Alfonso Bonillaaragon

Current Time: Jan 30, 2015 at 2:09:25 PM

Latest Report: Jan 30, 2015 at 1:00 PM


Visibility: N/A

Pressure: 29.90 "Hg

Humidity: 55%

Dew point: 66 °F

Location of BuenaventuraLocation

Historic Weather in Buenaventura — Graph

°F

Buenaventura temperature yesterday

Maximum temperature yesterday: 90 °F (at 3:00 PM)
Minimum temperature yesterday: 66 °F (at 1:00 AM)
Average temperature yesterday: 76 °F

Past Weeks' High & Low Weather Summary

 TemperatureHumidityPressure
High95 °F (Jan 15, 7:00 PM)100% (Jan 17, 9:00 PM)30.12 "Hg (Jan 17, 9:00 PM)
Low64 °F (Jan 18, 3:00 AM)39% (Jan 15, 7:00 PM)29.76 "Hg (Jan 29, 4:00 PM)
Average74 °F76%29.96 "Hg
* Reported Jan 15 1:00 PM — Jan 30 1:00 PM, Buenaventura, Weather by CustomWeather, © 2014

Note: Actual official high and low records may vary slightly from our data, if they occured in-between our weather recording intervals... More about our weather records

Advertising

Buenaventura weather history for previous 24 hours

 ConditionsComfort  
Time TempWeatherWind HumidityBarometerVisibility
1:00 PM
Jan 30
84 °FBroken clouds.No wind55%29.90 "HgN/A
12:00 PM84 °FScattered clouds.5 mph58%29.93 "HgN/A
11:00 AM82 °FScattered clouds.3 mph62%29.95 "HgN/A
10:00 AM79 °FPartly sunny.3 mph70%29.98 "HgN/A
9:00 AM77 °FPartly sunny.5 mph74%29.98 "HgN/A
8:00 AM72 °FPartly sunny.2 mph88%29.96 "HgN/A
7:00 AM70 °FBroken clouds.No wind88%29.94 "HgN/A
6:00 AM70 °FPassing clouds.3 mph88%29.92 "HgN/A
5:00 AM72 °FPassing clouds.3 mph83%29.90 "HgN/A
4:00 AM72 °FPassing clouds.3 mph83%29.90 "HgN/A
3:00 AM68 °FPassing clouds.No wind94%29.88 "HgN/A
2:00 AM70 °FPassing clouds.No wind88%29.89 "HgN/A
1:00 AM70 °FPassing clouds.5 mph88%29.91 "HgN/A
12:00 AM72 °FPassing clouds.6 mph83%29.93 "HgN/A
11:00 PM
Jan 29
72 °FPassing clouds.6 mph83%29.93 "HgN/A
10:00 PM73 °FPassing clouds.7 mph78%29.91 "Hg6 mi
9:00 PM75 °FPassing clouds.9 mph69%29.89 "Hg6 mi
8:00 PM77 °FPassing clouds.12 mph65%29.85 "Hg6 mi
7:00 PM79 °FPassing clouds.12 mph61%29.82 "Hg6 mi
6:00 PM82 °FPartly sunny.8 mph55%29.79 "HgN/A
5:00 PM86 °FScattered clouds.12 mph49%29.77 "HgN/A
4:00 PM90 °FScattered clouds.13 mph43%29.76 "HgN/A
3:00 PM90 °FScattered clouds.7 mph43%29.78 "HgN/A
2:00 PM88 °FScattered clouds.5 mph46%29.80 "HgN/A
Weather by CustomWeather, © 2014

See weather overviewHow to use our weather pages